Home   Weather   Ajmān   Past weeks

Flag for United Arab Emirates Past Weather in Ajmān, Ajman, United Arab Emirates — Yesterday and Last 2 Weeks

Now
75 °F

Passing clouds.


Feels Like: 77 °F
Forecast: 68 / 74 °F
Wind: 6 mph from Northwest

Location: Sharjah International Airport

Current Time: Jan 22, 2017 at 6:37:47 pm

Latest Report: Jan 22, 2017 at 6:00 pm


Visibility: N/A

Pressure: 30.01 "Hg

Humidity: 74%

Dew Point: 66 °F

Location of AjmānLocation

Past Weather in Ajmān — Graph

°F

Ajmān Temperature Yesterday

Maximum temperature yesterday: 84 °F (at 1:00 pm)
Minimum temperature yesterday: 61 °F (at 7:00 am)
Average temperature yesterday: 73 °F

High & Low Weather Summary for the Past Weeks

 TemperatureHumidityPressure
High84 °F (Jan 21, 1:00 pm)100% (Jan 12, 8:00 am)30.15 "Hg (Jan 12, 8:00 am)
Low52 °F (Jan 16, 6:00 am)31% (Jan 21, 1:00 pm)29.83 "Hg (Jan 13, 2:00 pm)
Average69 °F66%30.03 "Hg
* Reported Jan 7 5:00 pm — Jan 22 5:00 pm, Ajmān, Weather by CustomWeather, © 2017

Note: Actual official high and low records may vary slightly from our data, if they occured in-between our weather recording intervals... More about our weather records

Advertising

Ajmān Weather History for the Previous 24 Hours

Scroll right to see more
 ConditionsComfort  
Time TempWeatherWind HumidityBarometerVisibility
5:00 pm
Sun, Jan 22
77 °FPartly sunny.9 mph69%30.01 "HgN/A
4:00 pm79 °FPartly sunny.12 mph61%29.98 "HgN/A
3:00 pm82 °FPartly sunny.12 mph45%30.01 "HgN/A
2:00 pm82 °FPartly sunny.12 mph48%30.01 "HgN/A
1:00 pm82 °FScattered clouds.12 mph48%30.04 "HgN/A
12:00 pm81 °FPassing clouds.12 mph51%30.07 "HgN/A
11:00 am79 °FSunny.14 mph58%30.09 "Hg10 mi
10:00 am77 °FSunny.9 mph57%30.12 "Hg10 mi
9:00 am73 °FSunny.8 mph65%30.12 "Hg10 mi
8:00 am68 °FSunny.5 mph78%30.09 "Hg10 mi
7:00 am66 °FClear.5 mph83%30.09 "Hg10 mi
6:00 am66 °FClear.3 mph78%30.07 "Hg10 mi
5:00 am66 °FClear.3 mph78%30.07 "Hg10 mi
4:00 am66 °FClear.7 mph78%30.07 "Hg10 mi
3:00 am68 °FLight rain. Passing clouds.5 mph69%30.07 "HgN/A
2:00 am70 °FLight rain. Passing clouds.No wind60%30.09 "HgN/A
1:00 am73 °FClear.No wind47%30.07 "Hg10 mi
12:00 am72 °FClear.7 mph50%30.07 "Hg10 mi
11:00 pm
Sat, Jan 21
73 °FClear.8 mph47%30.09 "Hg10 mi
10:00 pm72 °FClear.7 mph50%30.09 "Hg10 mi
9:00 pm72 °FClear.5 mph53%30.09 "Hg10 mi
8:00 pm73 °FClear.3 mph50%30.07 "Hg10 mi
7:00 pm75 °FClear.6 mph47%30.07 "Hg10 mi
6:00 pm77 °FPassing clouds.10 mph42%30.04 "HgN/A
Weather by CustomWeather, © 2017

See weather overviewHow to use our weather pages